sim
Sign-in with your pilot id or email,
or register
Callsign
Passwort

Schedule Details

Flight Number: RYR3805 (1)
Departure: Manchester Airport (EGCC) at 06:25
Arrival: Fuerteventura Airport (GCFV) at 10:40
Route: Ryanair Passenger Schedule. Enter filed route here before submitting Pirep.

Weather Information
Getting current METAR information for EGCC 211720Z AUTO 22008KT 9999 FEW033/// BKN047/// //////CB 17/13 Q1022 NOSIG
Getting current METAR information for GCFV 211730Z 02017KT 350V050 CAVOK 27/18 Q1013

Schedule Frequency

Route Map